Weather History for LGLR - January, 2014

Change the Weather History Date:

Sunday, January 19, 2014

  Actual Average Record
Temperature  
Mean Temperature 48 °F -  
Max Temperature 61 °F 52 °F - ()
Min Temperature 35 °F 34 °F - ()
Degree Days  
Heating Degree Days 17    
Moisture  
Dew Point 45 °F    
Average Humidity 86    
Maximum Humidity 100    
Minimum Humidity 44    
Precipitation  
Precipitation 0.00 in 0.04 in - ()
Sea Level Pressure  
Sea Level Pressure 30.06 in    
Wind  
Wind Speed 2 mph ()    
Max Wind Speed 9 mph    
Max Gust Speed -    
Visibility 4.1 miles    
Events Fog , Rain    
T = Trace of Precipitation, MM = Missing Value Source: Averaged Metar Reports

Daily Weather History Graph

Daily Weather History Graph

Search for Another Location

Airport or City:

Trip Planner

Search our weather history database for the weather conditions in past years. The results will help you decide how hot, cold, wet, or windy it might be!

Date:

Astronomy

Jan. 19, 2014 Rise Set
Actual Time 7:47 AM EET 5:34 PM EET
Civil Twilight 7:18 AM EET 6:04 PM EET
Nautical Twilight 6:45 AM EET 6:37 PM EET
Astronomical Twilight 6:13 AM EET 7:09 PM EET
Moon 8:54 PM EET (1/19) 9:09 AM EET (1/19)
Length of Visible Light 10h 45m
Length of Day
9h 47m
Waning Gibbous, 91% of the Moon is Illuminated
Jan 19
Waning Gibbous
Jan 24
Last Quarter
Jan 30
New
Feb 6
First Quarter
Feb 15
Full

Hourly Weather History & Observations

Time (EET) Temp. Windchill Dew Point Humidity Pressure Visibility Wind Dir Wind Speed Gust Speed Precip Events Conditions
12:50 AM 44.6 °F - 44.6 °F 100% 30.09 in 3.7 mi Calm Calm - N/A   Mostly Cloudy
1:50 AM 46.4 °F 45.2 °F 44.6 °F 93% 30.09 in 3.7 mi WNW 3.5 mph - N/A   Mostly Cloudy
2:00 AM 46 °F - 45 °F 96% 30.12 in 4 mi WNW 3.5 mph - -   Mist
2:50 AM 42.8 °F - 42.8 °F 100% 30.09 in 3.7 mi Calm Calm - N/A   Mostly Cloudy
3:50 AM 42.8 °F - 42.8 °F 100% 30.09 in 3.7 mi Calm Calm - N/A   Mostly Cloudy
4:50 AM 39.2 °F - 39.2 °F 100% 30.09 in 2.5 mi Calm Calm - N/A   Mostly Cloudy
5:00 AM 39 °F - 39 °F 99% 30.12 in 2 mi Calm Calm - -   Mist
5:50 AM 39.2 °F - 39.2 °F 100% 30.09 in 0.7 mi Calm Calm - N/A   Mostly Cloudy
6:50 AM 37.4 °F - 37.4 °F 100% 30.09 in 0.1 mi Calm Calm - N/A Fog Fog
7:50 AM 35.6 °F - 35.6 °F 100% 30.09 in 0.1 mi Calm Calm - N/A Fog Fog
8:00 AM 36 °F - 36 °F 98% 30.12 in 0 mi Calm Calm - - Fog Partial Fog
8:50 AM 39.2 °F - 39.2 °F 100% 30.09 in 0.1 mi Calm Calm - N/A Fog Fog
9:50 AM 46.4 °F - 46.4 °F 100% 30.12 in 1.9 mi Calm Calm - N/A   Partly Cloudy
10:50 AM 51.8 °F - 44.6 °F 76% 30.12 in 5.0 mi Calm Calm - N/A   Unknown
11:00 AM 53 °F - 44 °F 63% 30.13 in 5 mi Calm Calm - -   Mist
11:50 AM 57.2 °F - 44.6 °F 63% 30.09 in - Calm Calm - N/A   Clear
12:50 PM 59.0 °F - 44.6 °F 59% 30.06 in - Calm Calm - N/A   Clear
1:50 PM 62.6 °F - 46.4 °F 55% 30.04 in - Calm Calm - N/A   Clear
2:00 PM 62 °F - 46 °F 44% 30.05 in 6 mi Calm Calm - -   Clear
2:50 PM 62.6 °F - 44.6 °F 52% 30.01 in - Calm Calm - N/A   Clear
3:50 PM 59.0 °F - 50.0 °F 72% 30.01 in 6.2 mi East 6.9 mph - N/A   Mostly Cloudy
4:50 PM 55.4 °F - 50.0 °F 82% 30.01 in 6.2 mi East 8.1 mph - N/A   Mostly Cloudy
5:00 PM 56 °F - 50 °F 73% 30.03 in 6 mi East 8.1 mph - -   Partly Cloudy
5:50 PM 53.6 °F - 50.0 °F 88% 30.01 in 6.2 mi East 9.2 mph - N/A   Mostly Cloudy
6:50 PM 53.6 °F - 50.0 °F 88% 30.01 in 6.2 mi East 6.9 mph - N/A   Scattered Clouds
7:50 PM 51.8 °F - 50.0 °F 94% 30.01 in 6.2 mi ENE 4.6 mph - N/A   Mostly Cloudy
8:00 PM 52 °F - 50 °F 90% 30.03 in 6 mi ENE 4.6 mph - -   Scattered Clouds
8:50 PM 50.0 °F - 48.2 °F 94% 30.01 in 6.2 mi Calm Calm - N/A   Mostly Cloudy
9:50 PM 50.0 °F - 48.2 °F 94% 30.01 in 6.2 mi Calm Calm - N/A   Mostly Cloudy
10:50 PM 51.8 °F - 50.0 °F 94% 29.95 in 6.2 mi East 8.1 mph - N/A   Mostly Cloudy
11:00 PM 51 °F - 51 °F 99% 29.96 in 6 mi East 8.1 mph - - Rain Light Rain
11:50 PM 51.8 °F - 51.8 °F 100% 29.95 in 6.2 mi East 4.6 mph - N/A   Mostly Cloudy